Simultaneous Nadir Overpasses (SNOs) Predictions

Prediction of SNOs between AQUA and GOES-15 Satellite Orbit:

Table of predicted SNOs for the next 14.0 days since TLE Epoch: 4/7/2012
Index Date Time (AQUA) AQUA Lat,Lon GOES-15 Lat,Lon Distance(km) Time Diff (sec)
1 04/08/2012 10:20:15 -0.64,-131.22 0.06,-134.40 362.52 80
2 04/08/2012 22:41:39 -0.50,-136.40 -0.05,-134.39 228.94 80
3 04/10/2012 22:29:28 0.10,-133.44 -0.05,-134.27 94.43 80
4 04/11/2012 10:50:44 0.98,-138.60 0.04,-134.22 497.48 80
5 04/12/2012 22:17:17 0.71,-130.48 -0.06,-134.15 417.55 80
6 04/13/2012 10:38:33 0.36,-135.64 0.05,-134.10 174.41 80
7 04/15/2012 10:26:21 -0.22,-132.67 0.05,-133.98 148.71 80
8 04/15/2012 22:47:45 -0.89,-137.86 -0.04,-133.96 443.35 80
9 04/17/2012 10:14:09 -0.83,-129.70 0.05,-133.85 471.75 80
10 04/17/2012 22:35:33 -0.28,-134.89 -0.04,-133.83 120.30 80
11 04/19/2012 22:23:21 0.35,-131.93 -0.04,-133.70 202.37 80
12 04/20/2012 10:44:36 0.77,-137.08 0.03,-133.65 389.36 80




NCC Satellite Simultaneous Nadir Overpasses (SNOs) Prediction Service
